Miscellaneous Local Product
Issued by NWS North Platte, NE

Home | Current Version | Previous Version | Text Only | Print | Product List | Glossary On
Versions: 1 2 3 4 5 6 7 8 9 10 11 12 13 14 15 16 17 18 19 20 21 22 23 24 25 26 27 28 29 30 31 32 33 34 35 36 37 38 39 40 41 42 43 44 45 46 47 48 49 50
370
AXUS43 KLBF 122310
MISLBF


WESTERN AND NORTH CENTRAL NEBRASKA HOURLY WEATHER ROUNDUP
NATIONAL WEATHER SERVICE NORTH PLATTE NE
500 PM CST TUE DEC 12 2017

NOTE: "FAIR" INDICATES FEW OR NO CLOUDS BELOW 12,000 FEET WITH NO
SIGNIFICANT WEATHER AND/OR OBSTRUCTIONS TO VISIBILITY.

NOTE: STATIONS NOT REPORTING VARIABLES SUCH AS SKY/WEATHER OR
PRESSURE ARE PROVIDED BY RAWS AND APRS NETWORKS AND ARE NOT UNDER
NATIONAL WEATHER SERVICE QUALITY CONTROL.

...OBSERVATIONS IN AND NEAR THE EASTERN PANHANDLE OF NEBRASKA...

CITY           SKY/WX    TMP DP  RH WIND       PRES   REMARKS
PINE RIDGE     CLEAR     54  22  28 W8        29.97F
GORDON         FAIR      54  20  27 W3        29.97F
CHADRON        CLEAR     58  19  22 SW5       29.98F
ALLIANCE       CLEAR     55  19  24 W12       30.02F
SIDNEY         CLEAR     57  16  20 NW9       30.08F
CRESCENT LAKE    N/A     59  17  19 W9          N/A
$$

...OBSERVATIONS IN NORTHERN NEBRASKA AND FAR SOUTHERN SOUTH DAKOTA...

CITY           SKY/WX    TMP DP  RH WIND       PRES   REMARKS
WINNER         FAIR      53  20  27 W7        29.90F
VALENTINE      CLEAR     54  19  25 W6        29.94F
THEDFORD       CLEAR     55  21  26 W5        29.98F
AINSWORTH      CLEAR     51  22  32 W8        29.94F
O`NEILL        CLEAR     46  23  39 S5        29.94F
ORD            CLEAR     48  17  29 SW8       29.97F
BROKEN BOW     CLEAR     51  22  31 SW9       29.98F
VALENTINE NWR    N/A     59  18  20 W7          N/A
HALSEY           N/A     61  19  19 W6G14       N/A
BUTTE            N/A     49  21  33 SW5G12      N/A
CHAMBERS         N/A     46  22  38 CALM        N/A
EWING            N/A     44  23  43 SW6         N/A
$$

...OBSERVATIONS IN SOUTHWEST NEBRASKA AND FAR NORTHEAST COLORADO...

CITY           SKY/WX    TMP DP  RH WIND       PRES   REMARKS
WRAY           FAIR      61  12  15 W5        30.09F
HOLYOKE        FAIR      63  18  17 W5        30.07F
IMPERIAL       CLEAR     60  19  20 W5        30.05F
OGALLALA       CLEAR     58  17  20 W7        30.03F
NORTH PLATTE   CLEAR     54  21  27 W6        30.01F
MCCOOK         CLEAR     57  21  24 SW5       30.04F
LEXINGTON      CLEAR     51  20  29 SW7       30.02F
STAPLETON        N/A     54  22  28 CALM        N/A
GOTHENBURG       N/A     57  19  22 SW3         N/A
CALLAWAY         N/A     48  23  37 SW5         N/A
$$

...OBSERVATIONS IN CENTRAL LINCOLN COUNTY AREA...

CITY           SKY/WX    TMP DP  RH WIND       PRES   REMARKS
N.P. AIRPORT   CLEAR     54  21  27 W6        30.01F
N.P. DOWNTOWN    N/A     54  24  31 CALM        N/A
N.P. SOUTHEAST   N/A     57  23  27 CALM        N/A
N.P. HILLCREST   N/A     55  24  30 W3          N/A
$$

...SOME OBSERVATIONS FROM AROUND THE REGION...

CITY           SKY/WX    TMP DP  RH WIND       PRES   REMARKS
DENVER         PTCLDY    63  13  14 N6        30.16F
GRAND JUNCTION CLEAR     51  13  21 NW7       30.34F
LARAMIE        CLEAR     48   8  19 W21       30.25F
CHEYENNE       CLEAR     57  10  15 NW8       30.18F
CASPER         CLEAR     45  19  35 SW21G30   30.17F
BISMARCK       CLEAR     49  25  39 W12       29.73F
RAPID CITY     CLEAR     53  14  21 S5        29.93F
PIERRE         CLEAR     50  27  40 W6        29.84F
SIOUX FALLS    PTCLDY    39  30  70 SW6       29.90F WCI  35
OMAHA          PTCLDY    37  25  61 SE8       30.04F WCI  31
GRAND ISLAND   CLEAR     47  17  30 SW9       30.01F
SCOTTSBLUFF    CLEAR     61  15  16 W15       30.06F
KANSAS CITY    PTCLDY    35  22  58 S5        30.13F WCI  31
HILL CITY      CLEAR     59  17  19 W3        30.07F
WICHITA        CLEAR     50  29  44 SW10      30.15F
DODGE CITY     CLEAR     58  15  18 SW9       30.13F
OKLAHOMA CITY  PTCLDY    46  26  45 SW6       30.24F
DALLAS         CLEAR     56  26  31 NW12      30.26F
AMARILLO       CLEAR     59  10  14 W14       30.23F
$$




USA.gov is the U.S. government's official web portal to all federal, state and local government web resources and services.